Regional Weather Roundup
Issued by NWS

Home | Current Version | Previous Version | Graphics & Text | Print | Product List | Glossary Off
Versions: 1 2 3 4 5 6 7 8 9 10 11 12 13 14 15 16 17 18 19 20 21 22 23 24 25 26 27 28 29 30 31 32 33 34 35 36 37 38 39 40 41 42 43 44 45 46 47 48 49 50

000
ASUS43 KMKX 030121
RWRWI

WISCONSIN REGIONAL WEATHER ROUNDUP
NATIONAL WEATHER SERVICE MILWAUKEE/SULLIVAN WI
800 PM CDT THU JUL 02 2015

NOTE: "FAIR" INDICATES FEW OR NO CLOUDS BELOW 12,000 FEET WITH NO
SIGNIFICANT WEATHER AND/OR OBSTRUCTIONS TO VISIBILITY.

WIZ001-002-006>008-014>016-023>028-030200-
NORTHWEST WISCONSIN

CITY           SKY/WX    TMP DP  RH WIND       PRES   REMARKS
SUPERIOR ARPT  CLEAR     72  59  64 SW6       29.94S
ASHLAND        PTCLDY    69  59  70 SW6       29.95F
HAYWARD        CLEAR     70  55  59 S5        29.98F
SIREN          CLEAR     72  54  53 CALM      29.97F
CUMBERLAND     CLEAR     68  55  64 S3        29.98F
RICE LAKE      CLEAR     71  55  56 CALM      29.99F
CHETEK         CLEAR     70  56  61 CALM      29.98F
LADYSMITH      CLEAR     70  55  57 CALM      30.00F
EAU CLAIRE     PTCLDY    72  56  57 SW3       29.97F
MENOMONIE      CLEAR     71  55  56 S3        29.98F
NEW RICHMOND   CLEAR     69  56  61 CALM      29.98F
OSCEOLA        CLEAR     71  57  61 S5        29.99F
$$

WIZ003>005-009-010-017-018-030200-
NORTH CENTRAL WISCONSIN

CITY           SKY/WX    TMP DP  RH WIND       PRES   REMARKS
MANITOWISH WTR PTCLDY    69  55  61 SW3       29.99S
ARBOR VITAE    PTCLDY    71  57  60 SW3       30.00S
WOODRUFF       PTCLDY    71  57  60 SW3       30.00S
RHINELANDER    CLEAR     69  52  54 SW5       30.01S
EAGLE RIVER    PTCLDY    68  51  55 CALM      29.99F
LAND O LAKES   PTCLDY    69  55  60 CALM      30.00S
PHILLIPS       CLEAR     69  55  60 CALM      29.99F
TOMAHAWK       CLEAR     66  55  67 CALM      30.01S
MEDFORD        CLEAR     67  55  66 SE3       30.00F
MERRILL        CLEAR     69  53  55 SW3       30.01F
$$

WIZ029-030-035-036-043>047-030200-
CENTRAL WISCONSIN

CITY           SKY/WX    TMP DP  RH WIND       PRES   REMARKS
WAUSAU         CLEAR     70  50  49 S8        29.99F
MOSINEE        CLEAR     66  54  63 CALM      30.02S
MARSHFIELD     CLEAR     69  50  50 SE5       30.00F
STEVENS POINT  CLEAR     67  51  55 CALM      30.01S
WAUPACA        CLEAR     69  50  49 SE3       30.01S
WAUTOMA        CLEAR     69  50  50 CALM      30.00F
WISC RAPIDS    CLEAR     69  48  47 SE5       30.01F
CAMP DOUGLAS   CLEAR     68  56  67 SE5       29.99R
$$

WIZ011>013-019>022-031-037>040-048>050-030200-
NORTHEAST WISCONSIN

CITY           SKY/WX    TMP DP  RH WIND       PRES   REMARKS
ANTIGO         CLEAR     62  54  73 S7        30.02F
SHAWANO        CLEAR     69  50  51 CALM      30.02R
OCONTO         CLEAR     67  54  64 CALM      30.01S
STURGEON BAY   CLEAR     63  48  59 CALM      30.04S
GREEN BAY      CLEAR     68  51  54 CALM      30.01F
MANITOWOC      CLEAR     65  47  52 MISG      30.02S
APPLETON       CLEAR     66  45  45 SE3       30.02S
CLINTONVILLE   CLEAR     68  48  49 SE3       30.01S
OSHKOSH        CLEAR     67  48  50 E3        30.00F
$$

WIZ032>034-041-042-053>061-030200-
SOUTHWEST WISCONSIN

CITY           SKY/WX    TMP DP  RH WIND       PRES   REMARKS
LA CROSSE      PTCLDY    72  54  53 SE5       29.97S
SPARTA         CLEAR     70  50  50 E3        29.99S
VIROQUA        PTCLDY    67  53  59 SE6       30.00S
BOSCOBEL       MOCLDY    67  58  72 CALM      29.98F
PRAIRIE DU CHI MOCLDY    67  54  61 CALM      29.98R
PLATTEVILLE    MOCLDY    66  52  60 E3        29.99R
$$

WIZ056-057-062-063-064-067-068-030200-
SOUTH CENTRAL WISCONSIN

CITY           SKY/WX    TMP DP  RH WIND       PRES   REMARKS
REEDSBURG      CLEAR     68  51  55 E3        29.98F
BARABOO/DELLS  CLEAR     67  52  57 CALM      29.99S
LONE ROCK      PTCLDY    68  58  70 CALM      29.99R
MINERAL POINT  MOCLDY    66  50  55 CALM      30.00R
MADISON        MOCLDY    66  49  54 NE5       29.98S
MIDDLETON      PTCLDY    67  51  57 NE3       29.99S
WATERTOWN      CLEAR     63  45  51 CALM      29.98F
MONROE         MOCLDY    63  48  59 NE5       29.98S
JANESVILLE     MOCLDY    64  52  63 E6        29.97S
$$

WIZ051-052-058>065-066-070>072-030200-
SOUTHEAST WISCONSIN

CITY           SKY/WX    TMP DP  RH WIND       PRES   REMARKS
MILWAUKEE      MOCLDY    58  47  66 N9        30.00F
WAUKESHA       CLEAR     63  48  59 NE9       30.00F
MILWAUKEE/TIMM CLEAR     63  45  51 NE7       30.01F
RACINE         CLEAR     58  48  69 N10       30.01F
BURLINGTON     CLEAR     61  51  70 E3        29.99S
KENOSHA        PTCLDY    59  49  69 NE6       30.00S
FOND DU LAC    CLEAR     66  47  50 E7        30.00F
SHEBOYGAN      CLEAR     61  46  57 E5        30.02S
WEST BEND      CLEAR     61  48  63 E6        30.00F
JUNEAU         CLEAR     64  47  53 NE6       30.00F
$$

LSZ147-162-030200-
LAKE SUPERIOR

STATION/POSITION TIME  TEMP    WIND        PRES    WAVE
                       AIR SEA DIR/SP/G            HT/PER
                 (UTC) (F)     (DEG/KT/KT) (MB)    (FT/S)
W MID LAKE BUOY  0050   57 39  200/  6/  8 1013.2F   0
DEVILS ISLAND    0100   69     220/ 11/ 12 1013.1F
SAXON HARBOR     0000   76      CALM  /  4 1013.9F
$$

LMZ867-665-643>646-030200-
LAKE MICHIGAN

STATION/POSITION TIME  TEMP    WIND        PRES    WAVE
                       AIR SEA DIR/SP/G            HT/PER
                 (UTC) (F)     (DEG/KT/KT) (MB)    (FT/S)
CHAMBERS ISLAND  0000   68     160/  3/  5 1016.3S
S GREEN BAY BUOY 2230   70 70  120/  6/  8 1017.6
N MID LAKE BUOY  0050   59 53  200/  6/  6 1016.1F
NORTHPORT PIER   0000   63     170/  2/  5 1016.3S
ALGOMA LAKESHORE 2310             CALM       N/A
KEWAUNEE LAKESHO 0000   63      20/  1/  3 1016.1F
SHEBOYGAN LAKESH 0100   59      10/  4/  5 1016.7F
PORT WASHINGTON  0000   62      40/  6/  9 1017.3S
ATWATER BUOY     0100   59      20/ 12/ 14 1017.0F
MILWAUKEE LAKESH 0100   58      20/ 10/ 12   N/A
KENOSHA   LAKESH 0100   58      10/ 12/ 15 1015.6S
$$

TC  - TEMPERATURE IN CELSIUS
VSB - VISIBILITY IN STATUTE MILES
WCI - WIND CHILL INDEX
HX  - HEAT INDEX




USA.gov is the U.S. government's official web portal to all federal, state and local government web resources and services.